Flag for U.S.A. Weather past 2 weeks in El Paso, Texas, U.S.A.

Now
61 °F

Passing clouds.


Feels Like: 61 °F
Forecast: 46 / 77 °F
Wind: 9 mph from Southwest

Location: El Paso International Airport

Current Time: Apr 18, 2015 at 9:46:46 AM

Latest Report: Apr 18, 2015 at 8:51 AM


Visibility: 10 mi

Pressure: 29.88 "Hg

Humidity: 15%

Dew point: 13 °F

Location of El PasoLocation

Historic Weather in El Paso — Graph

°F

El Paso temperature yesterday

Maximum temperature yesterday: 71 °F (at 4:51 PM)
Minimum temperature yesterday: 47 °F (at 5:51 AM)
Average temperature yesterday: 60 °F

Past Weeks' High & Low Weather Summary

 TemperatureHumidityPressure
High86 °F (Apr 6, 3:51 PM)89% (Apr 13, 7:03 AM)30.15 "Hg (Apr 13, 7:03 AM)
Low47 °F (Apr 14, 6:51 AM)5% (Apr 16, 9:51 PM)29.55 "Hg (Apr 8, 4:51 PM)
Average67 °F29%29.82 "Hg
* Reported Apr 3 8:51 AM — Apr 18 8:51 AM, El Paso, Weather by CustomWeather, © 2015

Note: Actual official high and low records may vary slightly from our data, if they occured in-between our weather recording intervals... More about our weather records

Advertising

El Paso weather history for previous 24 hours

 ConditionsComfort  
Time TempWeatherWind HumidityBarometerVisibility
8:51 AM
Sat, Apr 18
61 °FPassing clouds.9 mph15%29.88 "Hg10 mi
7:51 AM57 °FPassing clouds.5 mph17%29.87 "Hg10 mi
6:51 AM52 °FPassing clouds.9 mph19%29.86 "Hg10 mi
5:51 AM50 °FPassing clouds.9 mph20%29.85 "Hg10 mi
4:51 AM51 °FPassing clouds.8 mph22%29.85 "Hg10 mi
3:51 AM49 °FPassing clouds.6 mph25%29.86 "Hg10 mi
2:51 AM52 °FPassing clouds.No wind21%29.86 "Hg10 mi
1:51 AM54 °FPassing clouds.3 mph18%29.86 "Hg10 mi
12:51 AM56 °FPassing clouds.7 mph16%29.86 "Hg10 mi
11:51 PM
Fri, Apr 17
60 °FPassing clouds.3 mph12%29.86 "Hg10 mi
10:51 PM62 °FPassing clouds.3 mph10%29.86 "Hg10 mi
9:51 PM65 °FClear.14 mph8%29.85 "Hg10 mi
8:51 PM66 °FPassing clouds.15 mph9%29.84 "Hg10 mi
7:51 PM68 °FPassing clouds.10 mph7%29.82 "Hg10 mi
6:51 PM69 °FPassing clouds.14 mph6%29.82 "Hg10 mi
5:51 PM70 °FSunny.16 mph7%29.82 "Hg10 mi
4:51 PM71 °FPassing clouds.22 mph6%29.81 "Hg10 mi
3:51 PM70 °FPassing clouds.22 mph7%29.83 "Hg10 mi
2:51 PM69 °FPassing clouds.18 mph7%29.86 "Hg10 mi
1:51 PM68 °FPassing clouds.21 mph7%29.87 "Hg10 mi
12:51 PM66 °FPassing clouds.12 mph8%29.90 "Hg10 mi
11:51 AM63 °FPassing clouds.12 mph8%29.92 "Hg10 mi
10:51 AM61 °FPassing clouds.14 mph9%29.93 "Hg10 mi
9:51 AM58 °FPassing clouds.8 mph10%29.94 "Hg10 mi
Weather by CustomWeather, © 2015

See weather overviewHow to use our weather pages